Printer-friendly version
Follow the MPC on Twitter Follow the MPC on Facebook The MPC blog
Minor Planet Center

MPEC 2001-K03 : 2001 JV1

The following Minor Planet Electronic Circular may be linked-to from your own Web pages, but must not otherwise be redistributed electronically.

A form allowing access to any MPEC is at the bottom of this page.


Read MPEC 2001-K02 Read MPEC 2001-K04


M.P.E.C. 2001-K03                                Issued 2001 May 16, 15:14 UT

     The Minor Planet Electronic Circulars contain information on unusual
         minor planets and routine data on comets.  They are published
   on behalf of Commission 20 of the International Astronomical Union by the
          Minor Planet Center, Smithsonian Astrophysical Observatory,
                          Cambridge, MA 02138, U.S.A.

             Prepared using the Tamkin Foundation Computer Network

                              MPC@CFA.HARVARD.EDU
          URL http://cfa-www.harvard.edu/iau/mpc.html  ISSN 1523-6714

                                   2001 JV1

Observations:
     K01J01V* C2001 05 14.37607 16 25 09.03 +13 48 35.3          18.5        644
     K01J01V  C2001 05 14.38634 16 25 10.70 +13 48 54.0          18.4        644
     K01J01V  C2001 05 14.39650 16 25 12.35 +13 49 12.6          18.3        644
     K01J01V  C2001 05 14.92006 16 26 53.58 +14 05 07.2                      118
     K01J01V  C2001 05 14.92359 16 26 54.19 +14 05 13.5                      118
     K01J01V  C2001 05 14.92719 16 26 54.81 +14 05 21.4                      118
     K01J01V  C2001 05 14.92833 16 26 55.07 +14 05 23.1          17.8 R      118
     K01J01V  C2001 05 15.20743 16 27 50.62 +14 14 10.9          18.9 R      918
     K01J01V  C2001 05 15.21074 16 27 51.21 +14 14 17.8                      918
     K01J01V  C2001 05 15.21382 16 27 51.76 +14 14 24.6                      918
     K01J01V  C2001 05 15.22021 16 27 52.88 +14 14 36.0                      918
     K01J01V  C2001 05 15.85681 16 30 02.75 +14 34 58.8          17.6 V      151
     K01J01V  C2001 05 15.86068 16 30 03.54 +14 35 06.6          17.7 V      151
     K01J01V  C2001 05 15.86438 16 30 04.28 +14 35 12.0          17.8 V      151
     K01J01V  C2001 05 15.86637 16 30 04.64 +14 35 18.6          17.6 V      151
     K01J01V  C2001 05 15.86828 16 30 05.20 +14 35 21.5          17.9 V      151
     K01J01V  C2001 05 15.86995 16 30 05.49 +14 35 25.4          17.4 V      151
     K01J01V  C2001 05 16.25973 16 31 27.55 +14 48 34.5          18.2 V      926
     K01J01V  C2001 05 16.26064 16 31 27.75 +14 48 36.3          18.8 V      926
     K01J01V  C2001 05 16.26808 16 31 29.15 +14 48 51.9          18.6 V      926
     K01J01V  C2001 05 16.30558 16 31 35.30 +14 50 01.1          18.0 R      649
     K01J01V  C2001 05 16.30944 16 31 35.99 +14 50 09.9          17.8 R      649
     K01J01V  C2001 05 16.31323 16 31 36.77 +14 50 16.2          17.9 R      649
     K01J01V  C2001 05 16.31721 16 31 37.49 +14 50 23.4          18.1 R      649

Observer details:
118 Modra.  Observers J. Toth, S. Gajdos.  0.6-m f/5.5 reflector + CCD.
151 Eschenberg Observatory, Winterthur.  Observer M. Griesser.  0.40-m f/5.8
    Hypergraph.
644 Palomar Mountain/NEAT.  Observers E. F. Helin, S. Pravdo, K. Lawrence,
    M. Hicks, E. Hovland, T. Bickler, J. Schroeder, L. Scherr, R. Thicksten,
    A. Deetz.  1.2-m Schmidt + CCD.
649 Powell Observatory, Louisburg.  Observer K. Smalley.  0.75-m Newtonian
    + CCD.
918 Badlands Observatory, Quinn.  Observer R. Dyvig.  0.66-m f/4.8 reflector
    + CCD.
926 Tenagra II Observatory.  Observer M. Schwartz.  Measurer P. R. Holvorcem.
    0.5-m f/10 Ritchey-Chretien + CCD.

Orbital elements:
2001 JV1                                                             PHA 0.016
Epoch 2001 May 11.0 TT = JDT 2452040.5                  Spahr
M 335.25623              (2000.0)            P               Q
n   0.44211748     Peri.  200.89415     +0.39116795     +0.91303614
a   1.7065182      Node    92.28198     -0.82712218     +0.40383036
e   0.4364091      Incl.    6.64085     -0.40355488     +0.05732413
P   2.23           H   20.8           G   0.15
From 24 observations 2001 May 14-16.

Ephemeris:
2001 JV1                 a,e,i = 1.71, 0.44, 7                   q = 0.9618
Date    TT    R. A. (2000) Decl.     Delta      r     Elong.  Phase     V
2001 05 11    16 15.88   +12 12.8    0.160    1.146   146.0    29.5    18.4
2001 05 21    16 52.58   +17 48.1    0.104    1.093   139.2    37.3    17.6
2001 05 31    18 40.65   +27 26.1    0.058    1.045   121.7    55.6    16.7
2001 06 10    23 21.71   +23 28.0    0.050    1.007    79.2    98.0    17.9
2001 06 20    01 36.32   +08 28.8    0.089    0.979    63.3   112.0    19.8
2001 06 30    02 23.00   +02 55.9    0.140    0.964    64.3   108.2    20.5
2001 07 10    02 49.15   +00 49.8    0.192    0.963    68.5   100.9    20.8
2001 07 20    03 08.40   +00 02.7    0.241    0.975    73.5    92.9    21.0
2001 07 30    03 23.90   -00 14.0    0.284    1.001    79.0    84.8    21.0
2001 08 09    03 36.30   -00 21.7    0.321    1.037    85.1    76.9    21.1
2001 08 19    03 45.21   -00 32.9    0.350    1.083    92.1    69.1    21.1
2001 08 29    03 49.68   -00 53.4    0.371    1.136   100.1    61.1    21.1
2001 09 08    03 48.85   -01 23.4    0.387    1.193   109.4    52.8    21.1
2001 09 18    03 41.89   -02 00.4    0.400    1.254   120.1    43.9    21.0
2001 09 28    03 28.59   -02 36.3    0.415    1.317   132.2    34.3    20.9
2001 10 08    03 10.14   -02 59.6    0.438    1.381   145.0    24.5    20.8
2001 10 18    02 49.02   -02 59.7    0.474    1.444   156.9    15.7    20.8
2001 10 28    02 28.69   -02 30.3    0.528    1.508   163.7    10.7    21.0
2001 11 07    02 12.06   -01 33.5    0.601    1.570   160.1    12.4    21.4
2001 11 17    02 00.53   -00 16.1    0.694    1.630   151.0    17.1    22.0

Timothy B. Spahr             (C) Copyright 2001 MPC           M.P.E.C. 2001-K03

Read MPEC 2001-K02 Read MPEC 2001-K04


MPEC number:

Enter an MPEC number in one of the following forms:

  • 1997-B01 (the full form)
  • J97B01 (the packed version of the full form)
  • B01 (the abbreviated form)

Valid HTML 4.01!